Tracking 30160 objects as of 13-Feb-2025
HD Live streaming from Space Station
objects crossing your sky now

STARLINK-4157

Track STARLINK-4157 now!
10-day predictions
STARLINK-4157 is classified as:


NORAD ID: 53035
Int'l Code: 2022-076BB
Perigee: 546.0 km
Apogee: 547.8 km
Inclination: 53.2 °
Period: 95.4 minutes
Semi major axis: 6917 km
RCS: Unknown
Launch date: July 7, 2022
Source: United States (US)
Launch site: AIR FORCE EASTERN TEST RANGE (AFETR)
Your satellite tracking list
Your tracking list is empty




NASA's NSSDC Master Catalog

Two Line Element Set (TLE):
1 53035U 22076BB  25044.32472586  .00000425  00000-0  44761-4 0  9992
2 53035  53.2186  22.0451 0001284  95.4061 264.7077 15.08845130144341
Source of the keplerian elements: AFSPC